LEMUR-2-HANCOM-1 (52740 NORAD) Tracking and Keplerian Element Data

This shows tracking and keplerian element data for the satellite.

Feedback or suggestion? Click here.




ElementValue
Catalog52740
NameLEMUR-2-HANCOM-1
Epoch Orbit712
Epoch Day192.86814414
Epoch Year2022
RAAN307.2339
Inclination97.5308
Eccentricity0.0012601
Argument of Perigee95.6216
Mean Anonmoly264.6452
Mean Motion15.12293258
Decay Rate7.05E-05
L11 52740U 22057J 22192.86814414 .00007050 00000+0 41019-3 0 9995
L22 52740 97.5308 307.2339 0012601 95.6216 264.6452 15.12293258 7125

Live tracking and technical data element details for LEMUR-2-HANCOM-1 (NORAD 52740). LEMUR-2-HANCOM-1 can be tracked NOW for your location showing map with azimuth and elevation plus other details from your city location.

Track the satellite on the map from your city or location and see movement details for azimuth, elevation, latitude, longitude, range, height, and movement on the map or in text.







IsCatalogInMostPopularTable: catalog: 52740, numindb: 4
Update: records affected: 1



GetName: 52740 LEMUR-2-HANCOM-1

Hit Count: updated at: Sun, 14 Aug 2022 01:37:01 GMT